CW5398 Weather Reports


time (UTC)temp
C
wind
direction
speed
KPH
gust
KPH
rain 1hr
cm
rain 24hr
cm
rain mn
cm
humidity
%
barometer
mb
20260505040036 15 252 0.0 0.0 0.00 0.00 0.00 84 1009.1
20260505035016 15 252 0.0 0.0 0.00 0.00 0.00 83 1009.1
20260505034016 16 252 0.0 0.0 0.00 0.00 0.00 82 1009.0
20260505033016 16 252 0.0 0.0 0.00 0.00 0.00 79 1009.0
20260505032016 17 252 0.0 0.0 0.00 0.00 0.00 77 1008.8
20260505031016 17 252 0.0 0.0 0.00 0.00 0.00 75 1008.7
20260505030016 18 248 1.6 8.0 0.00 0.00 0.00 74 1008.7
20260505025017 18 252 0.0 0.0 0.00 0.00 0.00 73 1008.5
20260505024036 18 252 0.0 0.0 0.00 0.00 0.00 75 1008.5
20260505023016 19 252 0.0 0.0 0.00 0.00 0.00 73 1008.5
20260505022016 19 248 0.0 1.6 0.00 0.00 0.00 70 1008.5
20260505021036 19 248 0.0 1.6 0.00 0.00 0.00 69 1008.7
20260505020016 20 248 0.0 1.6 0.00 0.00 0.00 68 1008.7
20260505015016 20 248 1.6 6.4 0.00 0.00 0.00 67 1009.0
20260505014016 21 248 0.0 1.6 0.00 0.00 0.00 68 1009.0
20260505013016 21 248 0.0 1.6 0.00 0.00 0.00 67 1009.0
20260505012016 21 252 0.0 0.0 0.00 0.00 0.00 68 1009.1
20260505011016 21 248 0.0 1.6 0.00 0.00 0.00 67 1009.1
20260505010036 21 248 0.0 1.6 0.00 0.00 0.00 66 1009.1
20260505005016 21 248 0.0 6.4 0.00 0.00 0.00 65 1009.1
20260505004016 22 248 0.0 4.8 0.00 0.00 0.00 65 1009.2
20260505003017 22 248 1.6 6.4 0.00 0.00 0.00 65 1009.2
20260505002016 22 248 0.0 6.4 0.00 0.00 0.00 63 1009.2
20260505001016 22 248 1.6 6.4 0.00 0.00 0.00 62 1009.1
20260505000016 22 248 0.0 3.2 0.00 0.00 0.00 62 1009.1
20260504235015 22 248 0.0 4.8 0.00 0.00 0.00 62 1009.2
20260504234035 22 248 0.0 4.8 0.00 0.00 0.00 63 1009.3
20260504233016 22 248 0.0 1.6 0.00 0.00 0.00 63 1009.3
20260504232016 22 248 1.6 12.9 0.00 0.00 0.00 60 1009.3
20260504231015 22 248 1.6 11.3 0.00 0.00 0.00 61 1009.5
20260504230015 22 248 1.6 6.4 0.00 0.00 0.00 59 1009.5
20260504225016 22 248 1.6 12.9 0.00 0.00 0.00 60 1009.6
20260504224015 23 248 4.8 14.5 0.00 0.00 0.00 59 1009.6
20260504223036 24 203 1.6 6.4 0.00 0.00 0.00 59 1009.6
20260504222016 24 203 1.6 6.4 0.00 0.00 0.00 60 1009.6
20260504221015 24 203 1.6 9.7 0.00 0.00 0.00 59 1009.7
20260504220036 24 203 3.2 9.7 0.00 0.00 0.00 61 1009.7
20260504215015 24 203 3.2 11.3 0.00 0.00 0.00 60 1009.8
20260504214015 24 203 1.6 9.7 0.00 0.00 0.00 59 1010.1
20260504213035 23 203 1.6 9.7 0.00 0.00 0.00 61 1010.1
20260504212044 23 203 1.6 11.3 0.00 0.00 0.00 59 1010.1
20260504211015 23 203 4.8 11.3 0.00 0.00 0.00 61 1010.1
20260504210035 23 203 3.2 9.7 0.00 0.00 0.00 63 1010.0
20260504205015 23 203 1.6 9.7 0.00 0.00 0.00 61 1010.1
20260504204036 23 203 3.2 11.3 0.00 0.00 0.00 56 1010.1
20260504203035 23 203 3.2 11.3 0.00 0.00 0.00 58 1010.1
20260504202015 23 203 1.6 11.3 0.00 0.00 0.00 62 1010.0
20260504201015 23 203 4.8 12.9 0.00 0.00 0.00 59 1010.1
20260504200015 23 225 4.8 11.3 0.00 0.00 0.00 60 1010.1
20260504195017 23 248 3.2 12.9 0.00 0.00 0.00 60 1010.0
20260504194017 23 248 1.6 8.0 0.00 0.00 0.00 56 1010.1
20260504193017 23 248 0.0 4.8 0.00 0.00 0.00 55 1010.1
20260504192017 23 248 1.6 9.7 0.00 0.00 0.00 59 1010.1
20260504191017 22 248 1.6 9.7 0.00 0.00 0.00 58 1010.1
20260504190017 22 248 0.0 6.4 0.00 0.00 0.00 60 1010.1
20260504185017 22 248 1.6 8.0 0.00 0.00 0.00 60 1010.1
20260504184017 22 248 1.6 6.4 0.00 0.00 0.00 62 1010.2
20260504183017 22 248 1.6 8.0 0.00 0.00 0.00 61 1010.2
20260504182017 23 248 1.6 9.7 0.00 0.00 0.00 61 1010.4
20260504181017 23 248 1.6 6.4 0.00 0.00 0.00 59 1010.3
20260504180017 22 248 0.0 1.6 0.00 0.00 0.00 60 1010.2
20260504175017 21 248 1.6 6.4 0.00 0.00 0.00 64 1010.2
20260504174037 20 248 1.6 8.0 0.00 0.00 0.00 65 1010.2
20260504173017 21 248 3.2 11.3 0.00 0.00 0.00 63 1010.3
20260504172017 21 270 1.6 9.7 0.00 0.00 0.00 64 1010.3
20260504171017 21 270 0.0 3.2 0.00 0.00 0.00 62 1010.4
20260504151017 15 248 0.0 6.4 0.00 0.00 0.00 79 1009.8
20260504141016 11 248 0.0 1.6 0.00 0.00 0.00 90 1009.6
20260504081016 12 248 0.0 1.6 0.00 0.00 0.00 83 1008.8
20260504050017 15 250 0.0 0.0 0.00 0.00 0.00 80 1009.3
20260504045017 15 250 0.0 0.0 0.00 0.00 0.00 78 1009.2
20260504044017 15 250 0.0 0.0 0.00 0.00 0.00 75 1009.1
20260504043017 15 250 0.0 0.0 0.00 0.00 0.00 75 1009.1
20260504042017 16 250 0.0 0.0 0.00 0.00 0.00 76 1009.1
20260504041037 16 250 0.0 0.0 0.00 0.00 0.00 75 1009.1